| time (UTC) | temp C | wind direction | speed KPH | gust KPH | rain 1hr cm | rain 24hr cm | rain mn cm | humidity % | barometer mb |
| 20260505153209 | 15 | 187 | 9.7 | 12.9 | 0.00 | 0.00 | 0.00 | 68 | 1006.2 |
| 20260505152706 | 15 | 229 | 9.7 | 20.9 | 0.00 | 0.00 | 0.00 | 69 | 1006.4 |
| 20260505152202 | 15 | 43 | 6.4 | 14.5 | 0.00 | 0.00 | 0.00 | 68 | 1006.3 |
| 20260505151657 | 15 | 136 | 6.4 | 11.3 | 0.00 | 0.00 | 0.00 | 68 | 1006.2 |
| 20260505151156 | 15 | 198 | 9.7 | 22.5 | 0.00 | 0.00 | 0.00 | 70 | 1006.3 |
| 20260505150651 | 15 | 167 | 12.9 | 17.7 | 0.00 | 0.00 | 0.00 | 69 | 1006.5 |
| 20260505150149 | 15 | 339 | 11.3 | 22.5 | 0.00 | 0.00 | 0.00 | 69 | 1006.3 |
| 20260505140622 | 15 | 127 | 6.4 | 12.9 | 0.00 | 0.00 | 0.00 | 69 | 1006.4 |
| 20260505140119 | 14 | 209 | 6.4 | 11.3 | 0.00 | 0.00 | 0.00 | 71 | 1006.4 |
| 20260505125036 | 13 | 177 | 3.2 | 11.3 | 0.00 | 0.00 | 0.00 | 71 | 1006.5 |
| 20260505124532 | 13 | 231 | 4.8 | 11.3 | 0.00 | 0.00 | 0.00 | 71 | 1006.5 |
| 20260505124028 | 13 | 271 | 3.2 | 11.3 | 0.00 | 0.00 | 0.00 | 71 | 1006.3 |
| 20260505123525 | 13 | 214 | 6.4 | 12.9 | 0.00 | 0.00 | 0.00 | 72 | 1006.2 |
| 20260505123021 | 13 | 137 | 4.8 | 14.5 | 0.00 | 0.00 | 0.00 | 73 | 1006.4 |
| 20260505122518 | 12 | 122 | 3.2 | 20.9 | 0.00 | 0.00 | 0.00 | 73 | 1006.3 |
| 20260505122015 | 12 | 199 | 8.0 | 12.9 | 0.00 | 0.00 | 0.00 | 73 | 1006.3 |
| 20260505121512 | 12 | 225 | 6.4 | 9.7 | 0.00 | 0.00 | 0.00 | 74 | 1006.3 |
| 20260505121009 | 12 | 236 | 4.8 | 9.7 | 0.00 | 0.00 | 0.00 | 74 | 1006.4 |
| 20260505120505 | 12 | 186 | 4.8 | 11.3 | 0.00 | 0.00 | 0.00 | 75 | 1006.2 |
| 20260505120005 | 11 | 127 | 3.2 | 6.4 | 0.00 | 0.00 | 0.00 | 76 | 1006.3 |
| 20260505115500 | 11 | 177 | 6.4 | 11.3 | 0.00 | 0.00 | 0.00 | 77 | 1006.2 |
| 20260505114958 | 11 | 186 | 4.8 | 6.4 | 0.00 | 0.00 | 0.00 | 77 | 1006.5 |
| 20260505114454 | 11 | 189 | 1.6 | 4.8 | 0.00 | 0.00 | 0.00 | 79 | 1006.2 |
| 20260505113951 | 11 | 125 | 3.2 | 9.7 | 0.00 | 0.00 | 0.00 | 78 | 1006.4 |
| 20260505113447 | 10 | 355 | 3.2 | 9.7 | 0.00 | 0.00 | 0.00 | 80 | 1006.3 |
| 20260505112943 | 10 | 195 | 3.2 | 9.7 | 0.00 | 0.00 | 0.00 | 81 | 1006.4 |
| 20260505112441 | 10 | 176 | 6.4 | 11.3 | 0.00 | 0.00 | 0.00 | 82 | 1006.5 |
| 20260505111937 | 10 | 238 | 6.4 | 9.7 | 0.00 | 0.00 | 0.00 | 83 | 1006.5 |
| 20260505111432 | 9 | 146 | 3.2 | 4.8 | 0.00 | 0.00 | 0.00 | 84 | 1006.4 |
| 20260505110929 | 9 | 201 | 1.6 | 6.4 | 0.00 | 0.00 | 0.00 | 84 | 1006.5 |
| 20260505110425 | 9 | 136 | 1.6 | 6.4 | 0.00 | 0.00 | 0.00 | 85 | 1006.8 |
| 20260505101856 | 7 | 208 | 3.2 | 6.4 | 0.00 | 0.00 | 0.00 | 89 | 1006.7 |
| 20260505101351 | 7 | 149 | 6.4 | 9.7 | 0.00 | 0.00 | 0.00 | 90 | 1006.7 |
| 20260505100847 | 7 | 147 | 1.6 | 4.8 | 0.00 | 0.00 | 0.00 | 90 | 1006.5 |
| 20260505100344 | 7 | 179 | 4.8 | 6.4 | 0.00 | 0.00 | 0.00 | 91 | 1006.5 |
| 20260505095839 | 7 | 297 | 3.2 | 4.8 | 0.00 | 0.00 | 0.00 | 91 | 1006.4 |
| 20260505095337 | 7 | 245 | 3.2 | 4.8 | 0.00 | 0.00 | 0.00 | 92 | 1006.6 |
| 20260505094833 | 6 | 143 | 3.2 | 3.2 | 0.00 | 0.00 | 0.00 | 92 | 1006.4 |
| 20260505094330 | 6 | 145 | 1.6 | 3.2 | 0.00 | 0.00 | 0.00 | 92 | 1006.1 |
| 20260505093825 | 6 | 238 | 1.6 | 4.8 | 0.00 | 0.00 | 0.00 | 93 | 1006.4 |
| 20260505093324 | 6 | 166 | 0.0 | 1.6 | 0.00 | 0.00 | 0.00 | 93 | 1006.4 |
| 20260505092820 | 6 | 166 | 0.0 | 6.4 | 0.00 | 0.00 | 0.00 | 94 | 1006.2 |
| 20260505092319 | 6 | 138 | 1.6 | 3.2 | 0.00 | 0.00 | 0.00 | 94 | 1006.5 |
| 20260505091815 | 5 | 171 | 1.6 | 1.6 | 0.00 | 0.00 | 0.00 | 93 | 1006.4 |
| 20260505091314 | 5 | 142 | 1.6 | 1.6 | 0.00 | 0.00 | 0.00 | 93 | 1006.2 |
| 20260505090811 | 6 | 160 | 1.6 | 1.6 | 0.00 | 0.00 | 0.00 | 93 | 1006.3 |
| 20260505090309 | 6 | 178 | 0.0 | 0.0 | 0.00 | 0.00 | 0.00 | 93 | 1006.2 |
| 20260505085806 | 6 | 147 | 1.6 | 1.6 | 0.00 | 0.00 | 0.00 | 93 | 1006.3 |
| 20260505085305 | 6 | 153 | 1.6 | 1.6 | 0.00 | 0.00 | 0.00 | 92 | 1006.4 |
| 20260505084801 | 6 | 189 | 0.0 | 1.6 | 0.00 | 0.00 | 0.00 | 93 | 1006.4 |
| 20260505084300 | 6 | 167 | 1.6 | 4.8 | 0.00 | 0.00 | 0.00 | 93 | 1006.1 |
| 20260505083756 | 6 | 153 | 1.6 | 3.2 | 0.00 | 0.00 | 0.00 | 93 | 1006.3 |
| 20260505083253 | 5 | 159 | 1.6 | 3.2 | 0.00 | 0.00 | 0.00 | 93 | 1006.1 |
| 20260505082749 | 5 | 197 | 0.0 | 0.0 | 0.00 | 0.00 | 0.00 | 93 | 1006.2 |
| 20260505082247 | 5 | 154 | 0.0 | 0.0 | 0.00 | 0.00 | 0.00 | 93 | 1006.1 |
| 20260505081743 | 5 | 164 | 0.0 | 0.0 | 0.00 | 0.00 | 0.00 | 93 | 1006.2 |
| 20260505081240 | 5 | 160 | 0.0 | 0.0 | 0.00 | 0.00 | 0.00 | 93 | 1006.0 |
| 20260505080737 | 5 | 152 | 0.0 | 0.0 | 0.00 | 0.00 | 0.00 | 92 | 1006.3 |
| 20260505080232 | 5 | 150 | 0.0 | 0.0 | 0.00 | 0.00 | 0.00 | 92 | 1006.2 |
| 20260505075728 | 5 | 149 | 0.0 | 0.0 | 0.00 | 0.00 | 0.00 | 92 | 1006.2 |
| 20260505075226 | 5 | 226 | 0.0 | 0.0 | 0.00 | 0.00 | 0.00 | 91 | 1006.1 |
| 20260505074723 | 6 | 227 | 0.0 | 0.0 | 0.00 | 0.00 | 0.00 | 91 | 1006.1 |
| 20260505074220 | 6 | 227 | 0.0 | 1.6 | 0.00 | 0.00 | 0.00 | 91 | 1006.2 |
| 20260505073718 | 6 | 156 | 1.6 | 1.6 | 0.00 | 0.00 | 0.00 | 91 | 1006.0 |
| 20260505073215 | 6 | 184 | 0.0 | 1.6 | 0.00 | 0.00 | 0.00 | 90 | 1006.2 |
| 20260505072711 | 6 | 158 | 0.0 | 0.0 | 0.00 | 0.00 | 0.00 | 90 | 1006.2 |
| 20260505072208 | 6 | 154 | 0.0 | 0.0 | 0.00 | 0.00 | 0.00 | 89 | 1006.1 |
| 20260505071703 | 6 | 147 | 0.0 | 0.0 | 0.00 | 0.00 | 0.00 | 89 | 1006.2 |
| 20260505071201 | 6 | 169 | 0.0 | 1.6 | 0.00 | 0.00 | 0.00 | 88 | 1006.3 |
| 20260505070658 | 6 | 162 | 1.6 | 3.2 | 0.00 | 0.00 | 0.00 | 89 | 1006.2 |
| 20260505070154 | 6 | 129 | 1.6 | 3.2 | 0.00 | 0.00 | 0.00 | 89 | 1005.8 |
| 20260505065650 | 6 | 139 | 0.0 | 3.2 | 0.00 | 0.00 | 0.00 | 89 | 1006.0 |
| 20260505065147 | 6 | 153 | 0.0 | 3.2 | 0.00 | 0.00 | 0.00 | 89 | 1006.2 |
| 20260505064644 | 6 | 201 | 0.0 | 3.2 | 0.00 | 0.00 | 0.00 | 88 | 1006.1 |
| 20260505064142 | 6 | 235 | 1.6 | 6.4 | 0.00 | 0.00 | 0.00 | 89 | 1005.9 |
| 20260505063639 | 6 | 144 | 0.0 | 1.6 | 0.00 | 0.00 | 0.00 | 88 | 1006.0 |
| 20260505063135 | 6 | 202 | 0.0 | 3.2 | 0.00 | 0.00 | 0.00 | 88 | 1006.2 |
| 20260505062632 | 6 | 255 | 1.6 | 4.8 | 0.00 | 0.00 | 0.00 | 88 | 1006.1 |
| 20260505062129 | 6 | 132 | 3.2 | 3.2 | 0.00 | 0.00 | 0.00 | 88 | 1006.0 |
| 20260505061626 | 6 | 205 | 1.6 | 3.2 | 0.00 | 0.00 | 0.00 | 89 | 1005.9 |
| 20260505061124 | 6 | 179 | 1.6 | 3.2 | 0.00 | 0.00 | 0.00 | 89 | 1005.9 |
| 20260505060622 | 6 | 113 | 3.2 | 3.2 | 0.00 | 0.00 | 0.00 | 89 | 1005.8 |
| 20260505060118 | 6 | 201 | 0.0 | 6.4 | 0.00 | 0.00 | 0.00 | 89 | 1005.7 |
| 20260505055613 | 6 | 144 | 1.6 | 3.2 | 0.00 | 0.00 | 0.00 | 89 | 1005.7 |
| 20260505055110 | 6 | 183 | 1.6 | 3.2 | 0.00 | 0.00 | 0.00 | 89 | 1005.8 |
| 20260505054608 | 6 | 160 | 1.6 | 4.8 | 0.00 | 0.00 | 0.00 | 89 | 1005.9 |
| 20260505054106 | 6 | 142 | 3.2 | 3.2 | 0.00 | 0.00 | 0.00 | 88 | 1005.7 |
| 20260505053602 | 7 | 136 | 1.6 | 3.2 | 0.00 | 0.00 | 0.00 | 87 | 1005.8 |
| 20260505053059 | 7 | 141 | 3.2 | 3.2 | 0.00 | 0.00 | 0.00 | 87 | 1005.5 |
| 20260505052556 | 7 | 173 | 0.0 | 3.2 | 0.00 | 0.00 | 0.00 | 87 | 1006.0 |
| 20260505052054 | 7 | 180 | 1.6 | 4.8 | 0.00 | 0.00 | 0.00 | 87 | 1005.8 |
| 20260505051550 | 7 | 171 | 1.6 | 4.8 | 0.00 | 0.00 | 0.00 | 86 | 1005.5 |
| 20260505051048 | 7 | 234 | 1.6 | 3.2 | 0.00 | 0.00 | 0.00 | 87 | 1005.8 |
| 20260505050546 | 7 | 153 | 1.6 | 3.2 | 0.00 | 0.00 | 0.00 | 86 | 1005.6 |
| 20260505041514 | 8 | 284 | 0.0 | 3.2 | 0.00 | 0.00 | 0.00 | 83 | 1005.9 |
| 20260505041012 | 8 | 165 | 4.8 | 6.4 | 0.00 | 0.00 | 0.00 | 84 | 1005.8 |
| 20260505040509 | 7 | 112 | 3.2 | 4.8 | 0.00 | 0.00 | 0.00 | 85 | 1005.5 |
| 20260505040006 | 7 | 158 | 1.6 | 3.2 | 0.00 | 0.00 | 0.00 | 86 | 1005.4 |
| 20260505035501 | 7 | 160 | 1.6 | 3.2 | 0.00 | 0.00 | 0.00 | 85 | 1005.6 |
| 20260505034959 | 7 | 145 | 1.6 | 1.6 | 0.00 | 0.00 | 0.00 | 85 | 1005.6 |
| 20260505034455 | 7 | 214 | 1.6 | 3.2 | 0.00 | 0.00 | 0.00 | 86 | 1005.7 |
| 20260505033952 | 7 | 155 | 0.0 | 0.0 | 0.00 | 0.00 | 0.00 | 85 | 1005.5 |
| 20260505033449 | 7 | 132 | 0.0 | 0.0 | 0.00 | 0.00 | 0.00 | 84 | 1005.3 |
| 20260505032947 | 7 | 110 | 0.0 | 0.0 | 0.00 | 0.00 | 0.00 | 83 | 1005.5 |
| 20260505032444 | 7 | 207 | 0.0 | 1.6 | 0.00 | 0.00 | 0.00 | 83 | 1005.5 |
| 20260505031940 | 7 | 135 | 0.0 | 0.0 | 0.00 | 0.00 | 0.00 | 84 | 1005.3 |
| 20260505031438 | 7 | 111 | 1.6 | 3.2 | 0.00 | 0.00 | 0.00 | 83 | 1005.3 |
| 20260505030934 | 8 | 84 | 0.0 | 0.0 | 0.00 | 0.00 | 0.00 | 82 | 1005.4 |
| 20260505030430 | 8 | 183 | 0.0 | 0.0 | 0.00 | 0.00 | 0.00 | 82 | 1005.7 |
| 20260505025926 | 8 | 222 | 1.6 | 1.6 | 0.00 | 0.00 | 0.00 | 82 | 1005.5 |
| 20260505025423 | 8 | 192 | 0.0 | 0.0 | 0.00 | 0.00 | 0.00 | 82 | 1005.5 |
| 20260505024922 | 8 | 137 | 1.6 | 1.6 | 0.00 | 0.00 | 0.00 | 82 | 1005.4 |
| 20260505024419 | 7 | 168 | 0.0 | 0.0 | 0.00 | 0.00 | 0.00 | 83 | 1005.6 |
| 20260505023916 | 7 | 142 | 0.0 | 0.0 | 0.00 | 0.00 | 0.00 | 83 | 1005.7 |
| 20260505023413 | 7 | 104 | 0.0 | 0.0 | 0.00 | 0.00 | 0.00 | 83 | 1005.7 |
| 20260505022910 | 7 | 152 | 3.2 | 3.2 | 0.00 | 0.00 | 0.00 | 83 | 1005.5 |
| 20260505022408 | 7 | 110 | 0.0 | 1.6 | 0.00 | 0.00 | 0.00 | 83 | 1005.4 |
| 20260505021905 | 7 | 235 | 0.0 | 1.6 | 0.00 | 0.00 | 0.00 | 84 | 1005.7 |
| 20260505021401 | 7 | 155 | 1.6 | 1.6 | 0.00 | 0.00 | 0.00 | 85 | 1005.3 |
| 20260505020857 | 7 | 173 | 0.0 | 0.0 | 0.00 | 0.00 | 0.00 | 85 | 1005.5 |
| 20260505020353 | 7 | 126 | 0.0 | 0.0 | 0.00 | 0.00 | 0.00 | 83 | 1005.4 |
| 20260505015850 | 7 | 139 | 0.0 | 0.0 | 0.00 | 0.00 | 0.00 | 82 | 1005.3 |
| 20260505015347 | 8 | 137 | 0.0 | 0.0 | 0.00 | 0.00 | 0.00 | 82 | 1005.3 |
| 20260505014844 | 8 | 152 | 0.0 | 0.0 | 0.00 | 0.00 | 0.00 | 81 | 1005.6 |
| 20260505014341 | 8 | 192 | 0.0 | 6.4 | 0.00 | 0.00 | 0.00 | 81 | 1005.3 |
| 20260505013837 | 8 | 244 | 1.6 | 3.2 | 0.00 | 0.00 | 0.00 | 81 | 1005.3 |
| 20260505013334 | 8 | 165 | 3.2 | 4.8 | 0.00 | 0.00 | 0.00 | 81 | 1005.3 |
| 20260505012833 | 8 | 121 | 0.0 | 3.2 | 0.00 | 0.00 | 0.00 | 81 | 1005.2 |
| 20260505012331 | 8 | 223 | 0.0 | 0.0 | 0.00 | 0.00 | 0.00 | 81 | 1005.2 |
| 20260505011826 | 8 | 164 | 1.6 | 1.6 | 0.00 | 0.00 | 0.00 | 80 | 1004.9 |
| 20260505011323 | 8 | 152 | 1.6 | 4.8 | 0.00 | 0.00 | 0.00 | 80 | 1005.0 |
| 20260505010819 | 8 | 132 | 3.2 | 4.8 | 0.00 | 0.00 | 0.00 | 80 | 1005.1 |
| 20260505010315 | 8 | 132 | 1.6 | 4.8 | 0.00 | 0.00 | 0.00 | 80 | 1004.8 |
| 20260505005812 | 8 | 147 | 3.2 | 9.7 | 0.00 | 0.00 | 0.00 | 81 | 1004.7 |
| 20260505005309 | 8 | 155 | 1.6 | 1.6 | 0.00 | 0.00 | 0.00 | 82 | 1004.7 |
| 20260505004806 | 8 | 220 | 0.0 | 1.6 | 0.00 | 0.00 | 0.00 | 80 | 1004.6 |
| 20260505004302 | 8 | 174 | 0.0 | 3.2 | 0.00 | 0.00 | 0.00 | 81 | 1004.5 |
| 20260505003800 | 8 | 135 | 1.6 | 4.8 | 0.00 | 0.00 | 0.00 | 80 | 1004.5 |
| 20260505003257 | 8 | 199 | 0.0 | 0.0 | 0.00 | 0.00 | 0.00 | 79 | 1004.5 |
| 20260505002753 | 8 | 163 | 0.0 | 0.0 | 0.00 | 0.00 | 0.00 | 79 | 1004.3 |
| 20260505002251 | 8 | 175 | 1.6 | 1.6 | 0.00 | 0.00 | 0.00 | 78 | 1004.2 |
| 20260505001748 | 9 | 219 | 0.0 | 0.0 | 0.00 | 0.00 | 0.00 | 76 | 1003.9 |
| 20260505001245 | 9 | 208 | 0.0 | 0.0 | 0.00 | 0.00 | 0.00 | 76 | 1003.9 |
| 20260505000742 | 9 | 212 | 0.0 | 0.0 | 0.00 | 0.00 | 0.00 | 75 | 1003.7 |
| 20260505000240 | 10 | 207 | 0.0 | 1.6 | 0.00 | 0.00 | 0.00 | 75 | 1003.5 |
| 20260504235736 | 10 | 264 | 0.0 | 0.0 | 0.00 | 0.00 | 0.00 | 74 | 1003.6 |
| 20260504235233 | 10 | 102 | 0.0 | 0.0 | 0.00 | 0.00 | 0.00 | 73 | 1003.5 |
| 20260504234730 | 10 | 259 | 0.0 | 0.0 | 0.00 | 0.00 | 0.00 | 72 | 1003.3 |
| 20260504234227 | 10 | 135 | 0.0 | 3.2 | 0.00 | 0.00 | 0.00 | 71 | 1003.3 |
| 20260504233724 | 10 | 190 | 1.6 | 3.2 | 0.00 | 0.00 | 0.00 | 71 | 1002.9 |
| 20260504233219 | 10 | 137 | 1.6 | 3.2 | 0.00 | 0.00 | 0.00 | 71 | 1003.1 |
| 20260504232717 | 10 | 236 | 1.6 | 4.8 | 0.00 | 0.00 | 0.00 | 71 | 1003.0 |
| 20260504232214 | 10 | 189 | 3.2 | 4.8 | 0.00 | 0.00 | 0.00 | 70 | 1002.9 |
| 20260504231710 | 11 | 158 | 4.8 | 4.8 | 0.00 | 0.00 | 0.00 | 70 | 1002.7 |
| 20260504231207 | 11 | 202 | 6.4 | 6.4 | 0.00 | 0.00 | 0.00 | 69 | 1002.5 |
| 20260504230703 | 11 | 143 | 1.6 | 4.8 | 0.00 | 0.00 | 0.00 | 69 | 1002.6 |
| 20260504230202 | 11 | 242 | 4.8 | 6.4 | 0.00 | 0.00 | 0.00 | 68 | 1002.5 |
| 20260504225700 | 11 | 218 | 3.2 | 6.4 | 0.00 | 0.00 | 0.00 | 67 | 1002.5 |
| 20260504225155 | 12 | 209 | 3.2 | 6.4 | 0.00 | 0.00 | 0.00 | 67 | 1002.2 |
| 20260504224653 | 12 | 195 | 1.6 | 1.6 | 0.00 | 0.00 | 0.00 | 67 | 1002.3 |
| 20260504224149 | 12 | 165 | 1.6 | 3.2 | 0.00 | 0.00 | 0.00 | 66 | 1002.1 |
| 20260504223647 | 12 | 179 | 4.8 | 6.4 | 0.00 | 0.00 | 0.00 | 65 | 1002.0 |
| 20260504223142 | 12 | 202 | 3.2 | 6.4 | 0.00 | 0.00 | 0.00 | 65 | 1001.7 |
| 20260504222639 | 12 | 136 | 3.2 | 6.4 | 0.00 | 0.00 | 0.00 | 67 | 1001.9 |
| 20260504222136 | 12 | 115 | 1.6 | 6.4 | 0.00 | 0.00 | 0.00 | 66 | 1001.6 |
| 20260504221634 | 13 | 76 | 6.4 | 6.4 | 0.00 | 0.00 | 0.00 | 65 | 1001.8 |
| 20260504221131 | 13 | 238 | 1.6 | 6.4 | 0.00 | 0.00 | 0.00 | 65 | 1001.5 |
| 20260504220627 | 13 | 166 | 3.2 | 4.8 | 0.00 | 0.00 | 0.00 | 65 | 1001.6 |
| 20260504220125 | 13 | 151 | 1.6 | 3.2 | 0.00 | 0.00 | 0.00 | 66 | 1001.8 |
| 20260504215620 | 13 | 114 | 4.8 | 9.7 | 0.00 | 0.00 | 0.00 | 66 | 1001.6 |
| 20260504215118 | 12 | 148 | 6.4 | 6.4 | 0.00 | 0.00 | 0.00 | 68 | 1001.5 |
| 20260504214614 | 13 | 180 | 6.4 | 9.7 | 0.00 | 0.00 | 0.00 | 67 | 1001.6 |
| 20260504214110 | 13 | 213 | 6.4 | 9.7 | 0.00 | 0.00 | 0.00 | 66 | 1001.5 |
| 20260504213607 | 15 | 119 | 11.3 | 14.5 | 0.00 | 0.00 | 0.00 | 61 | 1001.3 |
| 20260504213104 | 15 | 255 | 6.4 | 11.3 | 0.00 | 0.00 | 0.00 | 58 | 1001.5 |
| 20260504212600 | 16 | 179 | 1.6 | 6.4 | 0.00 | 0.00 | 0.00 | 55 | 1001.1 |
| 20260504212057 | 16 | 335 | 1.6 | 12.9 | 0.00 | 0.00 | 0.00 | 54 | 1001.2 |
| 20260504211554 | 16 | 44 | 4.8 | 4.8 | 0.00 | 0.00 | 0.00 | 55 | 1001.3 |
| 20260504211051 | 16 | 215 | 9.7 | 14.5 | 0.00 | 0.00 | 0.00 | 52 | 1001.5 |
| 20260504210548 | 16 | 341 | 1.6 | 4.8 | 0.00 | 0.00 | 0.00 | 54 | 1001.1 |
| 20260504210045 | 16 | 61 | 1.6 | 4.8 | 0.00 | 0.00 | 0.00 | 54 | 1001.2 |
| 20260504205543 | 16 | 250 | 6.4 | 14.5 | 0.00 | 0.00 | 0.00 | 54 | 1001.2 |
| 20260504205040 | 16 | 255 | 1.6 | 12.9 | 0.00 | 0.00 | 0.00 | 54 | 1001.1 |
| 20260504204538 | 16 | 319 | 3.2 | 12.9 | 0.00 | 0.00 | 0.00 | 53 | 1001.1 |
| 20260504204037 | 16 | 307 | 6.4 | 12.9 | 0.00 | 0.00 | 0.00 | 54 | 1001.0 |
| 20260504203534 | 16 | 38 | 4.8 | 11.3 | 0.00 | 0.00 | 0.00 | 54 | 1001.4 |
| 20260504203032 | 16 | 74 | 1.6 | 4.8 | 0.00 | 0.00 | 0.00 | 54 | 1001.3 |
| 20260504202527 | 16 | 275 | 6.4 | 9.7 | 0.00 | 0.00 | 0.00 | 54 | 1001.2 |
| 20260504202024 | 16 | 11 | 3.2 | 4.8 | 0.00 | 0.00 | 0.00 | 54 | 1001.2 |
| 20260504201521 | 16 | 309 | 3.2 | 12.9 | 0.00 | 0.00 | 0.00 | 53 | 1001.3 |
| 20260504201019 | 15 | 218 | 3.2 | 17.7 | 0.00 | 0.00 | 0.00 | 55 | 1001.3 |
| 20260504200515 | 16 | 108 | 3.2 | 6.4 | 0.00 | 0.00 | 0.00 | 56 | 1001.4 |
| 20260504200012 | 15 | 284 | 3.2 | 9.7 | 0.00 | 0.00 | 0.00 | 58 | 1001.5 |
| 20260504195508 | 15 | 222 | 11.3 | 14.5 | 0.00 | 0.00 | 0.00 | 58 | 1001.1 |
| 20260504195005 | 15 | 14 | 4.8 | 12.9 | 0.00 | 0.00 | 0.00 | 57 | 1001.5 |
| 20260504194501 | 15 | 310 | 1.6 | 6.4 | 0.00 | 0.00 | 0.00 | 59 | 1001.5 |
| 20260504193957 | 15 | 349 | 6.4 | 11.3 | 0.00 | 0.00 | 0.00 | 59 | 1001.3 |
| 20260504193454 | 15 | 138 | 4.8 | 14.5 | 0.00 | 0.00 | 0.00 | 60 | 1001.3 |
| 20260504192953 | 14 | 259 | 3.2 | 9.7 | 0.00 | 0.00 | 0.00 | 61 | 1001.5 |
| 20260504192449 | 13 | 149 | 4.8 | 6.4 | 0.00 | 0.00 | 0.00 | 63 | 1001.7 |
| 20260504191949 | 12 | 144 | 3.2 | 6.4 | 0.00 | 0.00 | 0.00 | 65 | 1001.4 |
| 20260504191446 | 12 | 184 | 4.8 | 9.7 | 0.00 | 0.00 | 0.00 | 65 | 1001.6 |
| 20260504190941 | 12 | 124 | 1.6 | 11.3 | 0.00 | 0.00 | 0.00 | 67 | 1001.7 |
| 20260504190437 | 12 | 109 | 3.2 | 4.8 | 0.00 | 0.00 | 0.00 | 71 | 1001.9 |
| 20260504185934 | 11 | 221 | 0.0 | 11.3 | 0.00 | 0.00 | 0.00 | 69 | 1001.9 |
| 20260504185431 | 11 | 292 | 3.2 | 6.4 | 0.00 | 0.00 | 0.00 | 71 | 1002.2 |
| 20260504184927 | 11 | 135 | 3.2 | 6.4 | 0.00 | 0.00 | 0.00 | 72 | 1002.2 |
| 20260504184423 | 11 | 155 | 1.6 | 4.8 | 0.00 | 0.00 | 0.00 | 74 | 1002.2 |
| 20260504183919 | 10 | 146 | 3.2 | 11.3 | 0.00 | 0.00 | 0.00 | 73 | 1002.1 |
| 20260504183417 | 10 | 159 | 0.0 | 4.8 | 0.00 | 0.00 | 0.00 | 73 | 1002.4 |
| 20260504182915 | 11 | 257 | 14.5 | 17.7 | 0.00 | 0.00 | 0.00 | 70 | 1002.1 |
| 20260504182411 | 11 | 65 | 3.2 | 9.7 | 0.00 | 0.00 | 0.00 | 72 | 1002.0 |
| 20260504181908 | 11 | 190 | 12.9 | 16.1 | 0.00 | 0.00 | 0.00 | 68 | 1002.0 |
| 20260504181405 | 11 | 125 | 6.4 | 14.5 | 0.00 | 0.00 | 0.00 | 68 | 1002.0 |
| 20260504180904 | 11 | 97 | 4.8 | 12.9 | 0.00 | 0.00 | 0.00 | 67 | 1002.0 |
| 20260504180402 | 11 | 201 | 6.4 | 14.5 | 0.00 | 0.00 | 0.00 | 66 | 1001.8 |
| 20260504175900 | 11 | 228 | 8.0 | 16.1 | 0.00 | 0.00 | 0.00 | 65 | 1001.9 |
| 20260504175356 | 11 | 204 | 8.0 | 14.5 | 0.00 | 0.00 | 0.00 | 65 | 1001.9 |
| 20260504174855 | 11 | 188 | 6.4 | 14.5 | 0.00 | 0.00 | 0.00 | 60 | 1001.5 |
| 20260504174352 | 12 | 207 | 8.0 | 20.9 | 0.00 | 0.00 | 0.00 | 57 | 1001.8 |
| 20260504173849 | 12 | 234 | 6.4 | 14.5 | 0.00 | 0.00 | 0.00 | 55 | 1001.2 |
| 20260504173345 | 12 | 118 | 9.7 | 12.9 | 0.00 | 0.00 | 0.00 | 53 | 1001.1 |
| 20260504172842 | 13 | 181 | 8.0 | 12.9 | 0.00 | 0.00 | 0.00 | 54 | 1001.2 |
| 20260504172339 | 13 | 153 | 8.0 | 12.9 | 0.00 | 0.00 | 0.00 | 51 | 1001.0 |
| 20260504171835 | 13 | 206 | 6.4 | 9.7 | 0.00 | 0.00 | 0.00 | 51 | 1001.1 |
| 20260504171332 | 13 | 119 | 4.8 | 16.1 | 0.00 | 0.00 | 0.00 | 50 | 1001.2 |
| 20260504170830 | 13 | 198 | 1.6 | 14.5 | 0.00 | 0.00 | 0.00 | 52 | 1001.2 |
| 20260504170326 | 13 | 122 | 9.7 | 16.1 | 0.00 | 0.00 | 0.00 | 45 | 1001.3 |
| 20260504160244 | 13 | 188 | 9.7 | 24.1 | 0.00 | 0.00 | 0.00 | 54 | 1001.5 |